Terminal Aerodrome Forecast
Issued by NWS

Home | Current Version | Previous Version | Text Only | Print | Product List | Glossary Off
Versions: 1 2 3 4 5 6 7 8 9 10 11 12 13 14 15 16 17 18 19 20 21 22 23

000
FTUS42 KMHX 041759
TAFPGV
TAF
KPGV 041759Z 0418/0518 31009KT P6SM SCT030 BKN040
     FM050500 00000KT 4SM BR OVC050
     FM050700 00000KT 3SM BR OVC015
     FM051400 30005KT P6SM OVC050
      AMD LTD TO CLD VIS AND WIND=

USA.gov is the U.S. government's official web portal to all federal, state and local government web resources and services.